FW3698 Bowen Island CA current weather conditions

sailwx.info

Wind from 338

Air temperature 16.7° C
Dewpoint 12.8° C

Last reported at 2020-Jul-08 03:01 UTC.
Time now 2020-Jul-08 04:13 UTC

Location: N 49°23' W 123°25'.
View on Google Maps.

See reports from other nearby stations

  
Tides and Currents Weather Stations Pressure Air Temp Water Temp Dewpoint Dewpoint Depression Visibility Wind Speed Wind Dir Waves Ship Positions
date/time (UTC)wind fromknots sea level pressurealtimeterstation pressurevisibilityair tempwater tempwave heightnotes
2020-Jul-08 03:01 338 16.7
2020-Jul-08 02:51 338 16.1
2020-Jul-08 02:41 337 16.1
2020-Jul-08 02:31 338 16.1
2020-Jul-08 02:21 337 16.7
2020-Jul-08 02:11 338 16.7
2020-Jul-08 02:01 338 16.7
2020-Jul-08 01:51 338 16.7
2020-Jul-08 01:41 337 16.1
2020-Jul-08 01:31 338 16.1
2020-Jul-08 01:21 338 16.1
2020-Jul-08 01:11 337 16.1
2020-Jul-08 01:01 337 16.1
2020-Jul-08 00:51 337 0 gusting 3 16.1
2020-Jul-08 00:41 337 0 gusting 3 16.1
2020-Jul-08 00:31 337 16.1
2020-Jul-08 00:21 337 0 gusting 3 16.1
2020-Jul-08 00:11 337 0 gusting 3 16.1
2020-Jul-08 00:01 337 1 gusting 3 16.1
2020-Jul-07 23:51 337 1 gusting 5 16.1
2020-Jul-07 23:41 337 0 gusting 3 16.1
2020-Jul-07 23:31 337 16.7
2020-Jul-07 23:21 338 16.7
2020-Jul-07 23:11 337 0 gusting 4 16.7
2020-Jul-07 23:01 337 16.7
2020-Jul-07 22:51 337 0 gusting 3 16.7
2020-Jul-07 22:41 337 0 gusting 4 17.2
2020-Jul-07 22:31 337 17.2
2020-Jul-07 22:21 337 0 gusting 5 16.7
2020-Jul-07 22:11 337 16.7
2020-Jul-07 22:01 337 0 gusting 6 16.7
2020-Jul-07 21:51 115 0 gusting 6 17.2
2020-Jul-07 21:41 138 17.2
2020-Jul-07 21:31 189 1 gusting 6 17.2
2020-Jul-07 21:21 159 1 gusting 8 17.2
2020-Jul-07 21:01 131 2 gusting 6 17.8
2020-Jul-07 20:51 192 2 gusting 7 17.2
2020-Jul-07 20:41 170 1 gusting 6 17.2
2020-Jul-07 20:31 155 0 gusting 4 17.2
2020-Jul-07 20:21 177 0 gusting 4 17.2
2020-Jul-07 17:11 165 0 gusting 2 16.1
2020-Jul-07 17:01 120 0 gusting 6 16.1
2020-Jul-07 16:51 133 0 gusting 6 15.6
2020-Jul-07 16:41 127 1 gusting 6 15.6
2020-Jul-07 16:31 133 1 gusting 9 15.0
2020-Jul-07 16:21 159 0 gusting 7 15.0
2020-Jul-07 16:11 224 1 gusting 7 15.0
2020-Jul-07 16:01 196 1 gusting 5 15.0
2020-Jul-07 13:11 120 0 gusting 6 14.4
2020-Jul-07 13:01 136 0 gusting 6 14.4
2020-Jul-07 12:51 180 15.0
2020-Jul-07 12:41 163 0 gusting 5 15.0
2020-Jul-07 12:31 180 15.0
2020-Jul-07 12:21 143 0 gusting 5 15.0
2020-Jul-07 12:11 143 0 gusting 4 15.0
2020-Jul-07 12:01 126 1 gusting 6 15.0
2020-Jul-07 11:51 141 0 gusting 5 15.0
2020-Jul-07 11:41 127 0 gusting 6 15.0
2020-Jul-07 11:31 145 0 gusting 5 15.0
2020-Jul-07 11:21 129 0 gusting 9 15.0
2020-Jul-07 11:11 141 0 gusting 4 15.0
2020-Jul-07 11:01 185 0 gusting 5 15.0
2020-Jul-07 10:51 165 0 gusting 3 15.0
2020-Jul-07 10:41 186 15.0
2020-Jul-07 10:31 150 15.0
2020-Jul-07 10:21 199 2 gusting 7 15.0
2020-Jul-07 10:11 185 0 gusting 6 15.0
2020-Jul-07 10:01 119 0 gusting 4 15.0
2020-Jul-07 09:51 131 0 gusting 3 15.0
2020-Jul-07 09:41 143 0 gusting 5 15.0
2020-Jul-07 09:31 137 1 gusting 6 15.0
2020-Jul-07 09:21 147 0 gusting 6 15.0
2020-Jul-07 09:11 158 14.4
2020-Jul-07 09:01 180 14.4
2020-Jul-07 08:51 180 14.4
2020-Jul-07 08:41 180 14.4
2020-Jul-07 08:31 180 14.4
2020-Jul-07 08:21 180 14.4
2020-Jul-07 08:11 180 14.4
2020-Jul-07 08:01 180 14.4
2020-Jul-07 07:51 180 15.0
2020-Jul-07 07:41 180 15.0
2020-Jul-07 07:31 180 14.4
2020-Jul-07 07:21 180 14.4
2020-Jul-07 07:11 180 14.4
2020-Jul-07 07:01 180 14.4
2020-Jul-07 06:51 180 14.4
2020-Jul-07 06:41 180 14.4
2020-Jul-07 06:31 180 14.4
2020-Jul-07 06:21 180 14.4
2020-Jul-07 06:11 180 14.4
2020-Jul-07 06:01 180 14.4
2020-Jul-07 05:51 180 14.4
2020-Jul-07 05:41 180 15.0
2020-Jul-07 05:31 180 15.0
2020-Jul-07 05:21 180 15.0
2020-Jul-07 05:11 180 15.6
2020-Jul-07 05:01 180 15.6
2020-Jul-07 04:51 180 16.1
2020-Jul-07 04:41 180 16.1
2020-Jul-07 04:31 180 16.7
2020-Jul-07 04:21 180 16.7
2020-Jul-07 04:11 180 16.7
2020-Jul-07 04:01 180 17.2
2020-Jul-07 03:51 180 17.2
2020-Jul-07 03:41 191 1 gusting 4 17.2
2020-Jul-07 03:31 176 1 gusting 3 17.8
2020-Jul-07 03:21 191 1 gusting 5 17.8
2020-Jul-07 03:11 185 0 gusting 4 18.3
2020-Jul-07 03:01 023 0 gusting 3 18.9
2020-Jul-07 02:51 137 20.0
2020-Jul-07 02:41 178 0 gusting 4 20.0
2020-Jul-07 02:31 161 21.7
2020-Jul-07 02:21 161 0 gusting 6 22.2
2020-Jul-07 02:11 155 0 gusting 6 22.2
2020-Jul-07 02:01 173 2 gusting 6 22.2
2020-Jul-07 01:51 178 2 gusting 6 22.2
2020-Jul-07 01:41 174 1 gusting 5 22.8
2020-Jul-07 01:31 078 1 gusting 7 22.8
2020-Jul-07 01:21 117 1 gusting 6 22.8
2020-Jul-07 01:11 161 1 gusting 6 22.8
2020-Jul-07 01:01 190 2 gusting 6 22.2
2020-Jul-07 00:51 195 2 gusting 7 22.2
2020-Jul-07 00:41 136 1 gusting 6 22.2
2020-Jul-07 00:31 134 2 gusting 6 22.2
2020-Jul-07 00:21 152 3 gusting 10 21.7
2020-Jul-07 00:11 174 1 gusting 5 22.2
2020-Jul-07 00:01 135 1 gusting 6 22.2
2020-Jul-06 23:51 221 3 gusting 8 21.7
2020-Jul-06 23:41 174 2 gusting 6 22.2
2020-Jul-06 23:31 179 2 gusting 6 21.1
2020-Jul-06 23:21 168 2 gusting 8 20.6
2020-Jul-06 23:11 202 2 gusting 7 21.1
2020-Jul-06 23:01 131 1 gusting 6 20.6
2020-Jul-06 22:51 159 2 gusting 6 22.2
2020-Jul-06 22:41 148 2 gusting 6 21.7
2020-Jul-06 22:31 241 2 gusting 8 21.1
2020-Jul-06 22:21 337 1 gusting 6 20.0
2020-Jul-06 22:11 323 3 gusting 10 19.4
2020-Jul-06 22:01 125 3 gusting 11 20.6
2020-Jul-06 21:51 147 2 gusting 6 21.7
2020-Jul-06 21:41 159 1 gusting 6 22.8
2020-Jul-06 21:31 143 2 gusting 10 21.7
2020-Jul-06 21:21 301 2 gusting 11 22.2
2020-Jul-06 21:11 328 2 gusting 8 21.7
2020-Jul-06 21:01 276 3 gusting 9 21.1
2020-Jul-06 20:51 170 0 gusting 6 22.2
2020-Jul-06 20:41 206 3 gusting 13 21.1
2020-Jul-06 20:31 337 2 gusting 7 20.0
2020-Jul-06 20:21 337 1 gusting 8 18.9
2020-Jul-06 20:11 337 0 gusting 5 18.9
2020-Jul-06 20:01 337 1 gusting 6 18.9
2020-Jul-06 19:51 337 2 gusting 10 20.6
2020-Jul-06 19:41 337 1 gusting 6 21.1
2020-Jul-06 19:31 337 2 gusting 6 20.6
2020-Jul-06 19:21 337 2 gusting 6 20.0
2020-Jul-06 19:11 337 1 gusting 6 18.9
2020-Jul-06 19:01 337 1 gusting 6 18.9
2020-Jul-06 18:51 337 1 gusting 6 18.3
2020-Jul-06 18:41 337 1 gusting 4 17.2
2020-Jul-06 18:31 337 2 gusting 6 17.2
2020-Jul-06 18:21 337 3 gusting 6 16.7
2020-Jul-06 18:11 337 0 gusting 3 17.2
2020-Jul-06 18:01 337 0 gusting 4 17.2
2020-Jul-06 17:51 337 1 gusting 6 17.2
2020-Jul-06 17:41 337 1 gusting 5 16.7
2020-Jul-06 17:31 337 0 gusting 4 16.7
2020-Jul-06 17:21 337 1 gusting 5 16.1
2020-Jul-06 17:11 337 0 gusting 2 15.6
2020-Jul-06 17:01 337 0 gusting 2 15.6
2020-Jul-06 16:51 338 15.6
2020-Jul-06 16:41 337 0 gusting 2 15.6
2020-Jul-06 16:31 337 1 gusting 3 15.6
2020-Jul-06 16:21 337 1 gusting 4 15.6
2020-Jul-06 16:11 337 1 gusting 4 15.0
2020-Jul-06 16:01 337 0 gusting 3 15.0
2020-Jul-06 15:51 337 0 gusting 3 15.0
2020-Jul-06 15:41 337 0 gusting 2 15.0
2020-Jul-06 15:31 337 15.0
2020-Jul-06 15:21 337 15.0
2020-Jul-06 15:11 337 14.4
2020-Jul-06 15:01 338 14.4
2020-Jul-06 14:51 338 14.4
2020-Jul-06 14:41 337 14.4
2020-Jul-06 14:31 338 14.4
2020-Jul-06 14:21 338 14.4
2020-Jul-06 14:11 338 13.9
2020-Jul-06 14:01 338 13.3
2020-Jul-06 13:51 338 13.3
2020-Jul-06 13:41 338 12.8
2020-Jul-06 13:31 338 12.8
2020-Jul-06 13:21 338 12.2
2020-Jul-06 13:11 338 12.2
2020-Jul-06 13:01 338 12.2
2020-Jul-06 12:51 338 12.2
2020-Jul-06 12:41 338 11.7
2020-Jul-06 12:31 338 11.7
2020-Jul-06 12:21 337 0 gusting 4 11.7
2020-Jul-06 12:11 338 11.7
2020-Jul-06 12:01 337 11.7
2020-Jul-06 11:51 337 12.2
2020-Jul-06 11:41 338 11.7
2020-Jul-06 11:31 338 12.2
2020-Jul-06 11:21 338 12.2
2020-Jul-06 11:11 338 12.2
2020-Jul-06 11:01 337 12.2
2020-Jul-06 10:51 337 12.2
2020-Jul-06 10:41 337 12.2
2020-Jul-06 10:31 337 12.2
2020-Jul-06 10:21 337 12.2
2020-Jul-06 10:01 337 12.2
2020-Jul-06 09:51 338 12.2
2020-Jul-06 09:41 338 12.2
2020-Jul-06 09:31 337 12.2
2020-Jul-06 09:21 338 12.2
2020-Jul-06 09:11 338 12.2
2020-Jul-06 09:01 338 12.2
2020-Jul-06 08:51 338 12.2
2020-Jul-06 08:41 338 12.8
2020-Jul-06 08:31 338 12.8
2020-Jul-06 08:21 338 12.8
2020-Jul-06 08:11 338 12.8
2020-Jul-06 08:01 338 12.8
2020-Jul-06 07:51 338 12.8
2020-Jul-06 07:41 338 13.3
2020-Jul-06 07:31 338 12.8
2020-Jul-06 07:21 338 12.8
2020-Jul-06 07:11 338 12.8
2020-Jul-06 07:01 338 13.3
2020-Jul-06 06:51 338 13.3
2020-Jul-06 06:41 338 13.3
2020-Jul-06 06:31 338 13.3
2020-Jul-06 06:21 338 13.3
2020-Jul-06 06:11 338 13.9
2020-Jul-06 06:01 338 13.9
2020-Jul-06 05:51 338 13.9
2020-Jul-06 05:41 338 14.4
2020-Jul-06 05:31 338 14.4
2020-Jul-06 05:21 338 14.4
2020-Jul-06 05:11 338 15.0
2020-Jul-06 05:01 338 15.0
2020-Jul-06 04:51 338 15.6
2020-Jul-06 04:41 338 16.1
2020-Jul-06 04:31 338 16.1
2020-Jul-06 04:21 338 16.7
2020-Jul-06 04:11 337 17.2
2020-Jul-06 04:01 337 18.9